Location: Forst
(46.9333°N, 15.4333°E)
Time: 05:20:17
(UTC+00:00)

Lacrosse 5 rocket - Pass Details

Date: 17 April 2021
Orbit: 460 x 634 km, 57.0° (Epoch: 12 May)

Event Time Altitude Azimuth Distance (km) Brightness Sun altitude
Rises 21:12:32 0° 300° (WNW) 2,750 5.8 -27.7°
Reaches altitude 10° 21:15:07 10° 316° (NW) 1,887 4.9 -27.9°
Maximum altitude 21:18:34 23° 9° (N) 1,286 3.6 -28.2°
Enters shadow 21:20:18 18° 42° (NE) 1,483 3.7 -28.3°
